Penticton, British Columbia

6:28 PM PDT on July 26, 2017 (GMT -0700)
Penticton

Weather History for CYYF - November, 2012

Change the Weather History Date:

Tuesday, November 6, 2012

  Actual Average Record
Temperature  
Mean Temperature 43 °F -  
Max Temperature 49 °F 42 °F 59 °F (2006)
Min Temperature 37 °F 30 °F 17 °F (2003)
Degree Days  
Heating Degree Days 22    
Moisture  
Dew Point 40 °F    
Average Humidity 84    
Maximum Humidity 100    
Minimum Humidity 57    
Precipitation  
Precipitation 0.12 in 0.03 in - ()
Sea Level Pressure  
Sea Level Pressure 30.01 in    
Wind  
Wind Speed 3 mph ()    
Max Wind Speed 13 mph    
Max Gust Speed 20 mph    
Visibility 14.4 miles    
Events Rain    
Averages and records for this station are not official NWS values.
T = Trace of Precipitation, MM = Missing Value Source: Averaged Metar Reports

Daily Weather History Graph

Daily Weather History Graph

Search for Another Location

Airport or City:

Trip Planner

Search our weather history database for the weather conditions in past years. The results will help you decide how hot, cold, wet, or windy it might be!

Date:

Astronomy

Nov. 06, 2012 Rise Set
Actual Time 6:55 AM PST 4:27 PM PST
Civil Twilight 6:21 AM PST 5:01 PM PST
Nautical Twilight 5:43 AM PST 5:39 PM PST
Astronomical Twilight 5:06 AM PST 6:17 PM PST
Moon 11:19 PM PST (11/6) 12:45 PM PST (11/6)
Length of Visible Light 10h 39m
Length of Day
9h 31m
Waning Gibbous, 52% of the Moon is Illuminated
Nov 6
Waning Gibbous
Nov 6
Last Quarter
Nov 13
New
Nov 20
First Quarter
Nov 28
Full

Hourly Weather History & Observations

Time (PST) Temp. Windchill Dew Point Humidity Pressure Visibility Wind Dir Wind Speed Gust Speed Precip Events Conditions
12:00 AM 42.8 °F - 33.8 °F 70% 30.20 in 15.0 mi NW 2.3 mph - N/A   Mostly Cloudy
1:00 AM 39.2 °F - 33.8 °F 81% 30.20 in 15.0 mi Calm Calm - N/A   Mostly Cloudy
2:00 AM 41.0 °F 38.0 °F 35.6 °F 81% 30.20 in 15.0 mi NE 4.6 mph - N/A   Mostly Cloudy
3:00 AM 41.0 °F - 35.6 °F 81% 30.19 in 15.0 mi Calm Calm - N/A   Mostly Cloudy
4:00 AM 42 °F - 37 °F 75% 30.18 in 15 mi Calm Calm - -   Overcast
4:00 AM 41.0 °F 39.0 °F 37.4 °F 87% 30.18 in 15.0 mi NNW 3.5 mph - N/A   Overcast
5:00 AM 42.8 °F 41.1 °F 37.4 °F 81% 30.16 in 15.0 mi NNE 3.5 mph - N/A   Overcast
5:13 AM 42.8 °F 41.1 °F 35.6 °F 76% 30.17 in 15.0 mi North 3.5 mph - N/A Rain Light Rain Showers
5:29 AM 42.8 °F - 37.4 °F 81% 30.14 in 15.0 mi Calm Calm - N/A   Overcast
6:00 AM 42.8 °F 41.1 °F 37.4 °F 81% 30.12 in 15.0 mi Variable 3.5 mph - N/A   Overcast
7:00 AM 42.8 °F 39.3 °F 37.4 °F 81% 30.12 in 15.0 mi WNW 5.8 mph - N/A   Overcast
8:00 AM 44.6 °F 43.1 °F 37.4 °F 76% 30.12 in 15.0 mi ENE 3.5 mph - N/A   Mostly Cloudy
9:00 AM 44.6 °F - 37.4 °F 76% 30.10 in 15.0 mi Calm Calm - N/A   Mostly Cloudy
10:00 AM 47 °F - 37 °F 57% 30.09 in 15 mi Calm Calm - -   Partly Cloudy
10:00 AM 46.4 °F - 37.4 °F 71% 30.09 in 15.0 mi Calm Calm - N/A   Overcast
11:00 AM 48.2 °F - 35.6 °F 62% 30.05 in 15.0 mi Calm Calm - N/A   Mostly Cloudy
12:00 PM 48.2 °F - 39.2 °F 71% 30.01 in 15.0 mi NNE 5.8 mph - N/A   Mostly Cloudy
1:00 PM 48.2 °F - 41.0 °F 76% 29.99 in 15.0 mi NE 3.5 mph - N/A   Overcast
2:00 PM 50.0 °F - 41.0 °F 71% 29.95 in 15.0 mi North 8.1 mph - N/A   Overcast
3:00 PM 48.2 °F - 41.0 °F 76% 29.94 in 15.0 mi North 11.5 mph - N/A   Overcast
3:30 PM 48.2 °F - 42.8 °F 82% 29.97 in 15.0 mi North 11.5 mph - N/A Rain Light Rain Showers
4:00 PM 47 °F - 42 °F 76% 29.98 in 6 mi NE 12.7 mph - - Rain Light Rain Showers
4:00 PM 46.4 °F 41.1 °F 42.8 °F 87% 29.98 in 6.0 mi NE 11.5 mph 19.6 mph N/A Rain Light Rain Showers
5:00 PM 46.4 °F 44.3 °F 42.8 °F 87% 29.96 in 10.0 mi NE 4.6 mph - N/A Rain Light Rain Showers
6:00 PM 44.6 °F - 44.6 °F 100% 29.92 in 15.0 mi Calm Calm - N/A Rain Light Rain Showers
6:45 PM 44.6 °F 43.1 °F 42.8 °F 93% 29.88 in 15.0 mi SSE 3.5 mph - N/A Rain Light Rain Showers
7:00 PM 44.6 °F 43.1 °F 42.8 °F 93% 29.87 in 15.0 mi SSE 3.5 mph - N/A Rain Light Rain Showers
7:23 PM 44.6 °F - 42.8 °F 93% 29.88 in 15.0 mi Variable 2.3 mph - N/A   Mostly Cloudy
8:00 PM 42.8 °F - 41.0 °F 93% 29.86 in 15.0 mi North 2.3 mph - N/A   Mostly Cloudy
8:40 PM 42.8 °F 40.1 °F 42.8 °F 100% 29.87 in 15.0 mi North 4.6 mph - N/A   Mostly Cloudy
9:00 PM 44.6 °F 42.2 °F 42.8 °F 93% 29.88 in 15.0 mi North 4.6 mph - N/A   Overcast
9:30 PM 44.6 °F 43.1 °F 42.8 °F 93% 29.88 in 15.0 mi North 3.5 mph - N/A   Overcast
10:00 PM 44 °F - 43 °F 94% 29.88 in 15 mi NNW 4.6 mph - -   Partly Cloudy
10:00 PM 44.6 °F 41.4 °F 42.8 °F 93% 29.88 in 15.0 mi NNW 5.8 mph - N/A   Overcast
10:13 PM 44.6 °F 43.1 °F 42.8 °F 93% 29.88 in 15.0 mi North 3.5 mph - N/A   Mostly Cloudy
10:37 PM 42.8 °F - 42.8 °F 100% 29.88 in 15.0 mi NE 2.3 mph - N/A   Overcast
10:50 PM 42.8 °F 41.1 °F 41.0 °F 93% 29.88 in 15.0 mi NW 3.5 mph - N/A   Mostly Cloudy
11:00 PM 41.0 °F 39.0 °F 41.0 °F 100% 29.88 in 15.0 mi North 3.5 mph - N/A   Mostly Cloudy